Wind_Speed
19 19 18 17 16 16 16 15 15 14 13 11 10 8 5 5 8 9 6 7 6 6 6 6 6 8 13 12 9 10 2 11 13 11 6 4 3 10 7 5 9 10 11 25 26
19 22 23 22 22 21 20 19 19 19 18 16 14 12 11 8 8 8 10 10 9 7 6 5 6 9 13 13 12 7 4 7 13 4 4 4 2 4 6 3 7 14 23 24 23
18 19 23 26 26 26 26 25 24 23 23 21 19 17 16 14 12 10 15 15 14 12 7 6 6 12 11 6 1 5 6 11 9 5 1 3 5 1 2 1 4 5 19 23 23
20 21 21 23 26 29 30 30 29 29 28 27 25 23 22 20 15 10 13 17 17 16 9 6 6 7 12 10 5 11 12 10 5 1 2 2 4 4 3 2 9 12 16 21 20
20 22 23 24 24 25 27 30 33 34 34 33 32 30 30 30 26 18 12 16 19 17 12 5 4 8 13 10 7 12 10 5 4 2 2 7 5 5 4 2 10 16 19 21 20
21 22 24 25 25 25 25 25 28 31 34 36 37 37 38 39 27 25 25 19 20 19 12 8 3 6 5 6 9 9 5 3 2 1 3 7 1 2 4 8 10 14 17 19 20
22 23 23 25 26 26 26 26 27 27 27 29 33 37 40 35 26 24 26 25 23 21 13 12 7 5 3 5 14 17 7 8 9 7 2 1 8 3 5 7 7 12 16 19 21
23 24 25 25 25 26 26 27 27 27 27 26 27 32 38 27 29 28 27 27 26 24 16 14 12 8 1 2 19 14 9 10 11 10 8 6 7 3 3 6 7 11 15 18 16
23 24 26 27 25 23 25 27 28 28 28 28 28 27 27 23 28 28 31 30 29 25 19 17 16 12 8 4 15 20 13 13 13 12 12 11 9 4 1 5 4 6 14 18 19
20 21 23 27 27 24 24 24 28 29 30 29 30 25 22 9 27 27 32 31 28 27 20 20 19 19 15 12 14 17 12 18 14 10 13 19 15 5 3 4 3 4 3 10 17
25 23 21 22 24 26 24 23 26 30 32 32 32 28 15 15 20 25 30 31 31 28 25 24 24 26 16 13 12 13 23 13 10 13 13 17 18 16 5 7 7 4 2 6 12
27 27 26 24 21 21 25 23 25 32 31 32 31 35 26 18 24 24 32 35 36 33 28 25 31 25 19 15 12 16 17 14 18 16 10 8 11 8 6 5 6 10 3 4 10
28 27 26 25 22 20 21 23 23 23 28 32 31 35 30 29 27 25 33 37 36 36 37 33 29 26 25 20 17 18 24 13 10 15 13 11 12 15 13 11 9 6 5 7 8
28 28 26 22 21 20 19 19 19 17 17 30 27 36 33 30 39 27 33 35 38 40 35 30 32 26 27 26 20 18 17 16 12 11 7 10 7 14 19 16 13 12 8 10 12
28 27 24 22 18 19 17 16 15 11 5 7 11 18 30 37 35 35 34 38 40 37 37 36 33 34 33 32 22 17 14 7 5 7 10 14 10 15 20 26 19 15 14 11 12
27 25 22 20 21 17 14 15 15 10 10 5 6 10 19 31 35 28 40 38 38 35 28 36 30 30 38 34 25 16 17 17 15 12 8 27 15 22 21 18 17 18 16 16 15
23 20 20 18 21 17 14 18 14 11 8 8 7 7 13 19 36 42 44 44 41 35 36 32 38 27 26 32 29 24 17 3 3 3 9 14 14 33 7 16 12 18 22 19 19
19 17 15 20 19 17 17 24 14 9 24 12 10 3 12 18 29 47 36 48 45 38 29 34 24 40 30 32 43 29 20 14 6 3 6 7 12 21 10 16 12 14 15 19 20
15 11 14 16 18 19 20 28 19 11 11 27 19 15 7 17 16 40 39 52 49 45 27 37 30 43 38 37 34 24 32 30 31 27 8 8 10 16 14 22 23 20 21 17 22
12 8 10 13 19 21 22 29 24 21 10 8 8 4 1 10 15 33 44 48 50 49 43 15 23 29 43 35 30 30 28 24 21 6 7 5 8 11 8 18 28 23 19 19 20
13 4 11 15 16 20 21 24 33 21 23 13 9 6 1 7 5 16 28 17 51 47 44 35 19 34 32 41 46 37 35 28 17 18 8 2 9 11 9 19 28 26 24 22 21
14 7 10 18 13 15 19 23 24 36 25 23 20 11 12 8 7 8 20 38 19 44 49 44 20 17 39 38 37 42 39 36 25 13 11 12 21 18 13 10 22 24 22 25 21
10 5 9 14 14 16 17 19 19 24 23 25 16 14 13 10 9 11 15 26 21 30 40 44 42 19 19 25 29 36 40 33 31 29 18 12 22 21 14 6 10 22 23 23 27
10 4 5 4 7 12 21 19 17 22 21 20 21 21 28 22 17 12 18 25 28 19 41 39 44 43 24 30 38 33 37 38 35 29 27 25 29 29 19 16 17 21 31 25 27
8 5 1 2 4 5 11 18 22 19 19 24 22 17 16 29 33 32 24 19 16 19 24 41 42 41 50 28 20 30 39 39 36 31 28 29 29 34 25 21 18 20 34 32 29
10 9 8 11 7 8 7 7 17 17 19 19 22 18 18 28 30 33 15 14 15 14 19 24 38 45 44 40 33 26 32 27 30 34 31 33 33 37 31 25 18 20 37 33 30
10 11 11 6 6 8 7 7 10 13 22 19 19 22 24 23 29 41 37 28 26 19 8 16 30 37 42 43 39 45 45 36 28 32 34 38 33 37 38 29 18 27 38 30 32
Wind_Direction
245 244 242 239 237 235 234 234 233 233 234 232 228 234 225 222 229 224 243 235 270 309 308 2 13 352 332 341 326 334 329 181 188 189 177 153 17 64 74 179 155 157 185 183 173
245 245 246 244 243 241 239 238 238 238 239 239 240 237 243 238 231 237 236 246 255 288 293 321 349 350 327 320 305 279 241 244 224 195 136 92 186 21 43 125 183 167 168 178 181
258 253 247 247 247 245 244 243 243 243 244 242 242 244 245 252 250 248 234 236 243 260 275 284 343 346 4 39 328 271 233 205 201 167 128 114 173 75 71 338 163 204 184 182 183
263 259 255 252 248 247 248 248 247 248 248 249 248 248 248 251 258 252 233 234 239 256 261 273 358 3 39 55 117 149 153 145 130 106 58 8 282 254 283 250 175 153 179 178 177
269 264 262 257 253 251 248 247 248 250 251 253 253 252 252 250 244 250 246 225 235 243 251 228 35 52 52 81 137 143 139 95 30 34 309 331 297 268 255 179 175 156 166 179 173
274 270 266 263 260 257 253 251 249 247 248 249 251 252 252 252 252 247 243 228 227 238 243 215 170 32 26 10 151 160 153 170 175 200 298 340 317 341 150 156 168 158 168 178 180
275 273 270 267 264 262 260 257 254 252 249 249 249 250 250 249 249 241 234 229 223 229 226 220 222 139 326 35 168 160 179 182 182 247 307 183 10 65 131 144 168 171 176 177 182
275 273 274 271 266 265 264 261 257 254 253 251 250 249 252 249 243 234 230 225 223 225 222 211 208 203 7 176 163 168 188 188 219 232 259 283 317 3 128 135 172 186 184 187 183
283 278 274 272 270 267 263 262 260 257 254 252 252 254 258 246 232 230 227 219 225 223 222 201 204 197 182 232 171 177 192 204 234 244 259 263 283 328 237 99 125 161 185 189 188
295 291 283 276 272 269 265 262 258 255 253 252 250 251 243 212 226 221 222 217 221 222 218 201 199 204 197 209 220 213 190 210 240 255 266 264 266 313 247 113 98 91 184 190 193
298 298 295 291 281 274 267 261 259 256 250 250 250 244 234 225 217 209 215 211 211 220 214 202 205 206 208 219 237 231 220 227 245 246 253 261 260 280 251 111 89 78 102 156 168
294 294 295 294 291 282 272 266 259 257 255 254 250 252 236 238 220 209 205 205 207 211 200 204 214 213 215 216 245 228 222 240 262 264 229 247 258 225 153 86 96 66 74 150 176
296 294 292 291 288 284 274 268 268 268 272 249 251 247 239 231 229 206 205 205 208 208 209 215 217 211 212 217 231 227 232 260 265 213 223 251 261 234 233 226 207 169 140 175 168
296 293 290 288 284 275 271 262 264 275 286 270 259 249 241 231 232 196 206 205 207 213 211 217 211 211 214 220 226 240 237 249 214 193 245 256 275 266 248 236 208 191 163 171 171
296 291 288 282 275 268 261 254 247 253 301 257 237 226 230 228 226 211 207 204 208 208 205 209 207 206 211 218 218 225 206 197 294 285 267 249 266 283 256 240 203 175 165 171 172
295 288 279 277 270 256 248 229 218 208 242 229 230 237 228 216 217 218 207 205 210 206 212 214 211 211 218 219 224 199 239 268 280 291 272 263 239 280 249 234 194 164 160 170 171
294 286 278 264 254 255 228 205 197 216 225 233 211 251 244 237 209 210 202 204 204 203 208 212 213 206 207 223 219 231 239 239 338 172 232 270 226 249 272 226 192 177 162 164 173
294 287 274 259 247 239 214 196 210 235 220 201 205 206 247 230 222 201 205 205 209 204 201 206 218 201 201 202 212 222 222 215 195 196 261 228 224 253 278 235 186 159 149 164 177
293 301 280 255 243 225 210 200 215 225 226 242 250 272 253 214 226 209 206 210 210 201 195 205 219 211 205 206 206 203 219 234 234 253 273 207 263 290 276 226 185 155 172 164 178
296 324 281 256 243 231 216 214 212 219 230 244 259 251 247 195 201 198 204 210 210 208 208 209 215 207 211 210 212 213 216 215 223 203 243 247 272 278 326 169 174 173 173 176 174
302 338 241 246 240 238 232 225 216 216 235 262 243 294 171 349 223 192 205 202 212 210 209 206 210 216 202 213 217 213 223 228 226 256 189 181 262 274 308 189 190 183 168 164 167
311 316 250 242 249 248 244 245 241 221 237 260 252 268 301 277 268 212 195 204 206 218 213 211 227 223 218 216 222 225 225 233 230 229 222 225 250 262 289 229 206 197 182 184 176
328 311 257 242 228 238 248 254 257 248 250 262 254 242 218 257 297 234 196 186 195 204 209 213 220 224 227 214 222 217 223 233 237 238 227 192 240 245 251 233 217 221 207 197 200
331 304 242 218 214 250 252 259 274 263 264 269 282 261 244 241 246 240 215 191 197 195 204 208 220 220 215 213 212 211 218 229 232 232 233 229 241 242 247 254 254 270 223 212 206
327 319 224 250 262 287 273 263 263 269 267 252 267 252 261 259 251 251 233 220 201 209 209 211 219 221 229 222 221 219 224 226 231 238 233 241 242 244 237 237 264 267 214 212 210
318 310 296 290 289 278 275 280 265 260 270 251 259 264 243 248 246 242 248 255 237 195 204 210 219 224 228 230 223 212 212 218 234 237 246 244 249 244 243 255 282 239 209 209 209
311 311 303 272 274 285 289 269 295 291 255 251 250 258 241 242 241 242 240 223 222 214 202 222 213 221 222 227 234 243 224 222 226 230 237 234 241 248 246 249 274 217 213 207 209
Height
3167 3167 3168 3169 3169 3170 3170 3171 3171 3172 3173 3174 3175 3176 3176 3177 3177 3179 3180 3181 3180 3181 3181 3181 3180 3179 3177 3177 3175 3175 3176 3175 3174 3174 3174 3173 3174 3174 3174 3174 3173 3174 3174 3178 3178
3163 3163 3164 3165 3166 3166 3167 3168 3169 3169 3170 3172 3173 3175 3175 3176 3176 3178 3178 3179 3179 3179 3180 3180 3180 3178 3176 3175 3174 3174 3176 3175 3176 3176 3176 3175 3175 3176 3176 3175 3175 3175 3176 3179 3181
3160 3160 3160 3160 3161 3162 3163 3164 3165 3166 3167 3168 3170 3171 3173 3174 3175 3176 3176 3177 3178 3178 3179 3179 3180 3179 3175 3172 3172 3172 3172 3174 3175 3176 3175 3175 3175 3175 3176 3176 3176 3177 3177 3179 3182
3156 3156 3155 3155 3155 3156 3157 3159 3160 3161 3162 3163 3165 3167 3169 3171 3175 3173 3174 3175 3177 3177 3179 3179 3179 3177 3175 3173 3172 3172 3173 3174 3174 3175 3175 3176 3175 3175 3176 3175 3176 3176 3179 3182 3184
3150 3150 3150 3150 3150 3151 3152 3153 3154 3155 3157 3158 3160 3162 3163 3165 3167 3172 3171 3173 3174 3176 3177 3178 3178 3176 3175 3175 3175 3174 3173 3175 3175 3176 3176 3176 3176 3176 3175 3175 3176 3176 3179 3183 3185
3145 3145 3144 3144 3144 3145 3146 3147 3148 3149 3150 3152 3153 3154 3156 3156 3165 3167 3168 3169 3171 3173 3176 3179 3177 3176 3176 3176 3176 3177 3177 3176 3177 3178 3178 3178 3177 3175 3175 3176 3177 3178 3180 3183 3185
3140 3139 3139 3139 3139 3139 3140 3141 3141 3142 3143 3145 3146 3146 3146 3151 3158 3159 3163 3166 3168 3170 3174 3176 3177 3177 3177 3177 3177 3177 3178 3178 3178 3179 3179 3179 3178 3177 3176 3176 3178 3179 3180 3182 3184
3136 3134 3133 3132 3133 3133 3134 3134 3134 3136 3136 3138 3139 3139 3136 3148 3150 3154 3157 3161 3164 3167 3171 3174 3176 3177 3176 3178 3178 3178 3179 3179 3178 3179 3179 3180 3180 3178 3178 3177 3178 3179 3180 3182 3184
3130 3129 3128 3126 3127 3128 3127 3128 3128 3129 3130 3132 3134 3134 3135 3140 3142 3146 3149 3155 3159 3164 3168 3172 3173 3175 3176 3177 3179 3178 3178 3179 3179 3179 3180 3180 3180 3180 3179 3177 3177 3179 3180 3181 3182
3125 3124 3123 3121 3121 3122 3121 3121 3121 3122 3124 3126 3127 3133 3133 3133 3134 3139 3142 3149 3155 3159 3164 3168 3169 3171 3173 3175 3174 3177 3177 3179 3179 3180 3179 3178 3180 3180 3180 3177 3177 3178 3179 3179 3181
3120 3119 3118 3116 3116 3115 3116 3116 3117 3117 3117 3120 3121 3123 3127 3129 3131 3133 3136 3143 3148 3153 3157 3162 3164 3165 3171 3172 3174 3174 3176 3178 3179 3181 3179 3178 3179 3181 3181 3179 3177 3178 3179 3179 3181
3114 3114 3113 3111 3111 3110 3109 3109 3109 3109 3110 3112 3115 3115 3123 3125 3126 3128 3131 3137 3140 3145 3153 3157 3157 3164 3170 3171 3172 3173 3175 3176 3177 3178 3179 3178 3178 3180 3181 3180 3179 3179 3179 3181 3180
3107 3107 3107 3106 3106 3106 3104 3104 3103 3105 3102 3104 3106 3106 3114 3120 3119 3124 3127 3130 3135 3140 3145 3149 3156 3162 3165 3167 3169 3170 3172 3174 3177 3177 3177 3178 3177 3178 3179 3180 3178 3179 3179 3180 3181
3100 3099 3100 3101 3103 3100 3100 3101 3101 3102 3100 3093 3097 3098 3105 3110 3109 3120 3121 3127 3130 3134 3142 3147 3153 3157 3161 3163 3166 3167 3169 3173 3175 3177 3177 3177 3175 3173 3175 3177 3175 3177 3178 3179 3181
3094 3092 3092 3094 3094 3094 3097 3098 3100 3102 3102 3091 3089 3088 3093 3098 3105 3111 3117 3120 3124 3128 3136 3138 3144 3151 3155 3157 3163 3164 3168 3171 3173 3174 3174 3174 3177 3167 3171 3171 3172 3173 3176 3178 3180
3087 3085 3086 3086 3085 3089 3091 3094 3098 3103 3091 3085 3084 3084 3086 3089 3097 3106 3109 3116 3122 3126 3130 3136 3142 3147 3149 3155 3159 3163 3166 3169 3170 3171 3170 3167 3174 3160 3161 3163 3169 3170 3173 3177 3180
3080 3078 3078 3078 3077 3083 3086 3090 3095 3089 3084 3083 3081 3080 3082 3085 3089 3097 3101 3105 3110 3117 3121 3129 3134 3141 3146 3151 3153 3159 3163 3166 3169 3170 3166 3164 3167 3157 3158 3162 3165 3167 3170 3174 3178
3074 3072 3070 3068 3072 3076 3081 3084 3081 3077 3078 3075 3075 3076 3076 3080 3082 3088 3095 3098 3105 3111 3119 3123 3127 3131 3138 3145 3152 3153 3158 3161 3168 3167 3161 3159 3159 3154 3155 3160 3166 3168 3171 3173 3177
3068 3067 3064 3064 3065 3069 3074 3074 3073 3073 3072 3072 3072 3071 3073 3075 3079 3083 3088 3092 3096 3103 3111 3115 3120 3126 3133 3140 3147 3151 3154 3157 3160 3161 3165 3156 3154 3151 3149 3153 3165 3167 3170 3172 3176
3064 3064 3061 3060 3061 3063 3065 3066 3068 3069 3071 3071 3069 3069 3069 3070 3073 3076 3082 3086 3092 3099 3106 3112 3118 3120 3128 3137 3141 3145 3153 3156 3157 3162 3164 3153 3151 3150 3148 3150 3160 3164 3166 3170 3174
3061 3061 3059 3057 3058 3059 3059 3060 3063 3068 3068 3068 3067 3067 3068 3068 3067 3069 3074 3085 3091 3096 3104 3110 3112 3116 3123 3122 3128 3138 3141 3146 3151 3153 3150 3154 3150 3150 3150 3152 3155 3161 3164 3168 3171
3057 3058 3057 3056 3058 3056 3056 3056 3057 3060 3061 3061 3064 3067 3068 3066 3065 3067 3069 3079 3083 3091 3095 3103 3108 3110 3112 3118 3125 3131 3136 3140 3144 3147 3146 3145 3146 3149 3150 3152 3157 3161 3165 3168 3171
3055 3053 3052 3052 3054 3053 3053 3054 3054 3056 3057 3060 3062 3065 3065 3065 3067 3064 3066 3071 3077 3081 3089 3097 3099 3104 3109 3115 3117 3121 3127 3133 3138 3142 3140 3141 3141 3146 3149 3151 3156 3161 3164 3166 3170
3053 3051 3051 3050 3049 3050 3050 3052 3053 3054 3054 3057 3056 3059 3062 3062 3065 3061 3063 3068 3070 3076 3081 3087 3091 3095 3095 3100 3108 3113 3119 3125 3131 3133 3136 3136 3138 3141 3146 3149 3152 3155 3160 3163 3165
3051 3049 3049 3049 3048 3047 3047 3049 3050 3051 3051 3053 3053 3056 3059 3058 3058 3056 3060 3062 3066 3071 3075 3081 3082 3090 3093 3100 3106 3110 3114 3118 3122 3127 3128 3132 3134 3136 3140 3144 3146 3147 3152 3157 3161
3050 3049 3048 3047 3046 3045 3045 3045 3044 3045 3045 3048 3049 3052 3053 3052 3056 3054 3058 3060 3062 3067 3070 3073 3076 3085 3087 3095 3100 3101 3106 3111 3115 3120 3123 3126 3128 3131 3136 3138 3139 3141 3145 3150 3156
3047 3046 3044 3044 3043 3042 3043 3042 3041 3040 3040 3043 3046 3046 3046 3049 3051 3049 3051 3054 3053 3058 3063 3067 3072 3079 3079 3090 3095 3092 3091 3101 3107 3111 3116 3117 3123 3127 3130 3133 3135 3137 3141 3146 3152